Find PRAETORIAN SDA_504

NORAD ID: 100062 Int'l Des: 2026-163D Country: USA operational

Aktuelle Ansicht

3D-Globus wird geladen...

About PRAETORIAN SDA_504

PRAETORIAN SDA_504 (NORAD 100062) is a satellite of USA.

Nächste Überflüge

Passes for default location (London). Set your location on the main map for personalized predictions.

Höhenverlauf

Loading altitude history...

Zweizeiliger Elementsatz

1 A0062U 26206.56637646 .00000120 00000-0 94299-4 0 9997
2 A0062 81.4822 301.7560 0012814 188.5496 171.5445 13.85338092 1217
Epoch: 25. Juli 2026 • Age: 12 hours

Aktueller Status

Höhe 970.2 km
Apogäum / Perigäum N/A
Geschwindigkeit 7.36 km/s
Subsatellitenpunkt -53.46°S, 36.03°W
Typ other

Most Searched